Regional Weather Roundup
Issued by NWS

Home | Current Version | Previous Version | Text Only | Print | Product List | Glossary On
Versions: 1 2 3 4 5 6 7 8 9 10 11 12 13 14 15 16 17 18 19 20 21 22 23 24 25 26 27
000
ASUS46 KSEW 240710
RWRWA

WASHINGTON REGIONAL WEATHER ROUNDUP
NATIONAL WEATHER SERVICE SEATTLE WA
1200 AM PDT FRI MAR 24 2017

NOTE:"FAIR" INDICATES FEW OR NO CLOUDS BELOW 12,000 FEET WITH NO
SIGNIFICANT WEATHER AND/OR OBSTRUCTIONS TO VISIBILITY.

WAZ507-509-555>559-240800-
SEATTLE, TACOMA, EVERETT, AND VICINITY

CITY           SKY/WX    TMP DP  RH WIND       PRES   REMARKS
EVERETT        LGT RAIN  44  43  96 S7        29.87F FOG
BOEING FIELD   RAIN      46  46 100 CALM      29.88F
RENTON         LGT RAIN  46  46 100 NW5       29.87F FOG
SEATAC AIRPORT LGT RAIN  45  44  97 NW3       29.87F
JBLM-MCCHORD   LGT RAIN  45  45 100 CALM      29.86F
PUYALLUP       DRIZZLE   45  45 100 CALM      29.87R
BREMERTON      CLOUDY    43  39  87 NW6       29.89F
JBLM-FT LEWIS  LGT RAIN  45  45 100 N5        29.85F
TACOMA NARROWS LGT RAIN  44  44 100 N5        29.86F
$$

WAZ001-503-506-510-514-515-240800-
NORTH INTERIOR

CITY           SKY/WX    TMP DP  RH WIND       PRES   REMARKS
BELLINGHAM     LGT RAIN  46  44  93 NE5       29.84F
FRIDAY HARBOR  CLOUDY    47  40  76 SE18G26   29.82F
EASTSOUND      LGT RAIN  45  41  87 SE8       29.80F
PORT ANGELES   CLOUDY    44  38  79 VRB5      29.76F
EDIZ HOOK      PTSUNNY   46  39  75 NW3       29.75F
PORT TOWNSEND  MIX PCPN  43  41  93 SE10G20   29.84F
NAS WHIDBEY    CLOUDY    47  40  76 SE20      29.88F
ARLINGTON      CLOUDY    45  37  76 CALM      29.89S
BURLINGTON     CLOUDY    46  43  87 SE6       29.86F
$$

WAZ020-022-039-040-504-511-512-240800-
SOUTHWEST INTERIOR

CITY           SKY/WX    TMP DP  RH WIND       PRES   REMARKS
SHELTON        RAIN      45  43  93 N8        29.83F FOG
OLYMPIA        LGT RAIN  45  45 100 CALM      29.86F
CHEHALIS       LGT RAIN  46  46 100 S5        29.85F
KELSO          LGT RAIN  47  46  97 SE3       29.87S
VANCOUVER      LGT RAIN  48  47  96 SE8       29.88F
SCAPPOOSE, OR  LGT RAIN  47  47 100 CALM      29.87F FOG
PORTLAND, OR   LGT RAIN  48  45  89 SE15      29.88F
$$

WAZ021-516-517-240800-
WASHINGTON COAST

CITY           SKY/WX    TMP DP  RH WIND       PRES   REMARKS
FORKS          LGT RAIN  44  42  93 SE13G21   29.73F
HOQUIAM        LGT RAIN  45  45 100 E14       29.79F
ASTORIA, OR    CLOUDY    47  43  86 E3        29.80S
$$

WAZ019-023-024-040-567>569-240800-
CASCADE MOUNTAINS AND COLUMBIA GORGE

CITY           SKY/WX    TMP DP  RH WIND       PRES   REMARKS
STAMPEDE PASS  NOT AVBL
TROUTDALE, OR  LGT RAIN  49  45  86 E8        29.89F
THE DALLES, OR LGT RAIN  48  44  86 NW10      29.93F
$$

WAZ026-027-041>044-520-521-240800-
EAST SLOPES

CITY           SKY/WX    TMP DP  RH WIND       PRES   REMARKS
OMAK           CLOUDY    41  29  62 NW3       29.97F
WENATCHEE      LGT RAIN  46  33  60 E8        29.95S
ELLENSBURG     CLOUDY    46  33  60 S3        29.93F
YAKIMA         CLOUDY    49  38  65 NW3       29.93F
SUNNYSIDE ARPT CLOUDY    48  34  58 W7        29.92F
$$

WAZ028-034-035-240800-
COLUMBIA BASIN

CITY           SKY/WX    TMP DP  RH WIND       PRES   REMARKS
EPHRATA        CLOUDY    43  31  62 N6        29.95F
MOSES LAKE     CLOUDY    42  33  70 N6        29.96S
PASCO          CLOUDY    44  35  70 NW8       29.92F
HERMISTON, OR  CLOUDY    47  38  71 CALM      29.87S
$$

WAZ036>038-240800-
NORTHEAST WASHINGTON

CITY           SKY/WX    TMP DP  RH WIND       PRES   REMARKS
SPOKANE GEIGER MOCLDY    37  28  70 E3        29.98F
SPOKANE FELTS  CLEAR     34  30  85 CALM      30.00F
FAIRCHILD AFB  PTCLDY    33  29  86 E10       29.96F WCI  25
COEURDALENE,ID CLEAR     33  28  81 NE7       30.02S
DEER PARK      CLEAR     33  26  75 N3        30.01S
$$

WAZ029>033-240800-
SOUTHEAST WASHINGTON

CITY           SKY/WX    TMP DP  RH WIND       PRES   REMARKS
PULLMAN        PTCLDY    39  28  64 E13       29.98F
LEWISTON, ID   MOCLDY    42  32  67 SE3       29.99F
WALLA WALLA    CLOUDY    57  30  35 VRB5      29.87F
PENDLETON, OR  MOCLDY    48  34  58 S7        29.88S
$$




USA.gov is the U.S. government's official web portal to all federal, state and local government web resources and services.